#timestamp,LO_Frequency,Hit,StdDev 
1515193215.9,286046996.8,N
1515193235.7,286046999.6,N
1515193255.5,286046995.5,N
1515193275.4,286046993.7,N
1515193295.2,286046994.8,N
1515193315.0,286046993.9,N
1515193315.9,286046993.9,N
1515193335.8,286046994.6,N
1515193355.6,286046993.6,N
1515193375.4,286046995.0,N
1515193395.3,286046997.3,N
1515193415.1,286046997.1,N
1515193416.0,286046997.1,N
1515193435.8,286046999.3,N
1515193455.7,286046995.8,N
1515193475.5,286046999.5,N
1515193495.3,286046999.1,N
1515193515.1,286046997.2,N
1515193535.9,286046999.2,N
1515193555.7,286046998.4,N
1515193575.5,286047000.8,N
1515193595.4,286047002.7,N
1515193615.2,286047003.1,N
1515193635.0,286047005.8,N
1515193635.9,286047005.8,N
1515193655.8,286047007.6,N
1515193675.6,286047009.1,N
1515193695.4,286047010.1,N
1515193715.3,286047009.2,N
1515193735.1,286047007.0,N
1515193736.0,286047007.0,N
1515193755.8,286047007.5,N
1515193775.7,286047004.6,N
1515193795.5,286047008.4,N
1515193815.3,286047006.3,N
1515193835.1,286047007.1,N
1515193855.9,286047003.1,N
1515193875.7,286047000.5,N
1515193895.5,286046998.6,N
1515193915.4,286046998.2,N
1515193935.2,286047000.1,N
1515193955.0,286047001.4,N
1515193955.9,286047001.4,N
1515193975.8,286047005.6,N
1515193995.6,286047007.3,N
1515194015.4,286047004.9,N
1515194035.3,286047007.5,N
1515194055.1,286047006.5,N
1515194056.0,286047006.5,N
1515194075.8,286047005.7,N
1515194095.7,286047002.6,N
1515194115.5,286046999.9,N
1515194135.3,286047002.7,N
1515194155.2,286047002.4,N
1515194175.9,286047002.4,N
1515194195.7,286047000.0,N
1515194215.5,286047002.2,N
1515194235.4,286047001.4,N
1515194255.2,286046999.9,N
1515194275.0,286046998.4,N
1515194275.9,286046998.4,N
1515194295.8,286047000.0,N
1515194315.6,286046998.2,N
1515194335.4,286046997.6,N
1515194355.3,286046997.0,N
1515194375.1,286046998.9,N
1515194395.8,286046996.6,N
1515194415.7,286046995.1,N
1515194435.5,286046994.0,N
1515194455.3,286046994.6,N
1515194475.2,286046993.1,N
1515194495.9,286046988.6,N
1515194515.7,286046993.1,N
1515194535.6,286046992.7,N
1515194555.4,286046992.1,N
1515194575.2,286046990.6,N
1515194595.0,286046992.2,N
1515194596.0,286046992.2,N
1515194615.8,286046990.4,N
1515194635.6,286046989.1,N
1515194655.4,286046991.5,N
1515194675.3,286046994.0,N
1515194695.1,286046991.8,N
1515194715.8,286046991.9,N
1515194735.7,286046990.3,N
1515194755.5,286046994.0,N
1515194775.3,286046993.3,N
1515194795.2,286046996.9,N
1515194815.9,286046999.3,N
1515194835.7,286046999.0,N
1515194855.6,286046999.3,N
1515194875.4,286046999.5,N
1515194895.2,286047001.7,N
1515194915.1,286047005.5,N
1515194916.0,286047005.5,N
1515194935.8,286047003.3,N
1515194955.6,286047008.7,N
1515194975.5,286047013.1,N
1515194995.3,286047015.8,N
1515195015.1,286047020.1,N
1515195035.9,286047025.2,Y
1515195055.7,286047025.8,P
1515195075.5,286047028.1,N
1515195095.3,286047029.6,N
1515195115.2,286047030.2,N
1515195135.0,286047036.2,N
1515195135.9,286047036.2,N
1515195155.8,286047038.6,Y
1515195175.6,286047009.5,P
1515195195.4,286047013.6,N
1515195215.2,286047010.6,N
1515195235.1,286047008.7,N
1515195236.0,286047008.7,N
1515195255.8,286047009.0,N
1515195275.6,286047012.7,N
1515195295.5,286047014.3,N
1515195315.3,286047015.0,N
1515195335.1,286047016.4,Y
1515195355.9,286047002.0,P
1515195375.7,286047005.5,N
1515195395.5,286047003.0,N
1515195415.4,286047005.2,N
1515195435.2,286047005.7,N
1515195455.0,286047005.7,N
1515195455.9,286047005.7,N
1515195475.8,286046999.9,N
1515195495.6,286046995.0,N
1515195515.4,286046991.8,N
1515195535.2,286046990.7,N
1515195555.1,286046988.5,N
1515195556.0,286046988.5,N
1515195575.8,286046989.2,N
1515195595.6,286046988.5,N
1515195615.5,286046993.1,N
1515195635.3,286046988.7,N
1515195655.1,286046990.4,N
1515195675.9,286046992.7,N
1515195695.7,286046990.8,N
1515195715.5,286046988.4,N
1515195735.4,286046985.6,N
1515195755.2,286046988.1,N
1515195775.0,286046988.3,N
1515195775.9,286046988.3,N
1515195795.8,286046985.8,N
1515195815.6,286046988.3,N
1515195835.4,286046985.3,N
1515195855.3,286046986.6,N
1515195875.1,286046985.0,N
1515195876.0,286046985.0,N
1515195895.8,286046986.8,N
1515195915.6,286046986.5,N
1515195935.5,286046986.5,N
1515195955.3,286046984.3,N
1515195975.1,286046984.1,N
1515195995.9,286046986.7,N
1515196015.7,286046986.3,Y
1515196035.5,286046999.3,P
1515196055.4,286046995.3,N
1515196075.2,286046990.1,N
1515196095.0,286046989.8,N
1515196095.9,286046989.8,N
1515196115.8,286046991.5,N
1515196135.6,286046988.6,Y
1515196155.4,286047001.2,P
1515196175.3,286047000.4,N
1515196195.1,286047000.3,N
1515196215.8,286047001.2,N
1515196235.7,286047000.7,N
1515196255.5,286046998.2,N
1515196275.3,286047003.5,N
1515196295.2,286047007.6,N
1515196315.9,286047005.0,N
1515196335.7,286047003.2,N
1515196355.5,286046999.8,N
1515196375.4,286047004.1,N
1515196395.2,286047002.1,N
1515196415.0,286047003.6,N
1515196415.9,286047003.6,N
1515196435.8,286047003.7,N
1515196455.6,286047007.3,N
1515196475.4,286047008.6,N
1515196495.3,286047006.2,N
1515196515.1,286047005.3,N
1515196535.8,286047005.1,N
1515196555.7,286047006.8,N
1515196575.5,286047005.9,N
1515196595.3,286047005.2,N
1515196615.2,286047006.3,N
1515196635.9,286047008.1,N
1515196655.7,286047011.1,Y
1515196675.6,286047010.2,P
1515196695.4,286047006.1,N
1515196715.2,286047007.1,N
1515196735.1,286047007.6,Y
1515196736.0,286047007.6,P
1515196755.8,286047000.6,N
1515196775.6,286046999.2,N
1515196795.5,286046999.6,N
